Location: Newark
(23.3970°S, 47.6010°W)
Time: 16:48:42
(UTC+00:00)

S-56A Canister/Altair - Visible Passes

Search period start: 21 February 2020 00:00
Search period end: 02 March 2020 00:00
Orbit: 633 x 2499 km, 38.9° (Epoch: 20 February)

Date Brightness Start Highest point End Pass type
(mag) Time Alt. Az. Time Alt. Az. Time Alt. Az.
21 Feb 10.4 05:24:29 13° SSE 05:24:29 13° SSE 05:25:50 10° SE visible
21 Feb 9.6 07:22:29 10° SW 07:27:54 36° SSE 07:35:35 10° E visible
22 Feb 9.6 06:51:21 16° SSW 06:55:06 30° SSE 07:01:44 10° E visible
23 Feb 9.7 00:02:05 10° NW 00:03:52 18° NNW 00:03:52 18° NNW visible
23 Feb 9.5 06:20:51 23° S 06:22:19 25° SSE 06:27:56 10° ESE visible
23 Feb 8.5 08:20:29 10° SW 08:26:45 89° SSE 08:36:27 10° NE visible
23 Feb 8.7 23:29:10 10° NNW 23:33:49 33° N 23:33:49 33° N visible
24 Feb 9.9 05:50:27 20° SE 05:50:27 20° SE 05:54:12 10° ESE visible
24 Feb 8.4 07:48:06 10° SW 07:53:58 77° SE 08:02:51 10° ENE visible
24 Feb 8.4 22:56:15 10° NNW 23:02:39 33° NE 23:03:45 31° ENE visible
25 Feb 10.5 01:01:08 10° WNW 01:01:14 10° WNW 01:01:14 10° WNW visible
25 Feb 10.6 05:20:08 11° ESE 05:20:08 11° ESE 05:20:33 10° ESE visible
25 Feb 8.4 07:17:36 23° SW 07:21:13 65° SSE 07:29:16 10° ENE visible
25 Feb 8.9 22:23:18 10° NNW 22:29:53 29° NE 22:33:37 16° E visible
26 Feb 9.4 00:27:54 10° WNW 00:31:07 28° W 00:31:07 28° W visible
26 Feb 8.4 06:47:22 46° S 06:48:32 54° SSE 06:55:43 10° ENE visible
26 Feb 8.0 23:54:36 10° WNW 00:00:54 65° WSW 00:00:54 65° WSW visible
27 Feb 9.0 06:17:14 37° ESE 06:17:14 37° ESE 06:22:14 10° ENE visible
27 Feb 8.7 08:14:44 12° WSW 08:20:00 42° NW 08:28:08 10° NNE visible
27 Feb 7.8 23:21:15 10° WNW 23:28:42 82° SW 23:30:37 43° SE visible
28 Feb 10.2 05:47:09 17° E 05:47:09 17° E 05:48:47 10° E visible
28 Feb 8.3 07:44:39 30° W 07:47:12 48° NW 07:54:57 10° NE visible
28 Feb 8.0 22:47:53 10° NW 22:56:00 85° NE 23:00:14 19° ESE visible
29 Feb 10.1 00:55:34 10° WSW 00:57:42 17° WSW 00:57:42 17° WSW visible
29 Feb 7.9 07:14:37 56° NNW 07:14:37 56° NNW 07:21:46 10° NE visible
29 Feb 8.2 22:14:28 10° NW 22:23:15 73° NE 22:29:04 10° ESE visible
01 Mar 9.4 00:22:00 10° W 00:27:13 28° SSW 00:27:13 28° SSW visible
01 Mar 9.0 06:44:34 33° NE 06:44:34 33° NE 06:48:38 10° NE visible
01 Mar 9.8 08:43:24 10° WNW 08:46:24 13° NW 08:49:51 10° N visible
01 Mar 9.1 23:48:22 10° W 23:54:43 33° SSW 23:56:39 27° S visible
